Location: Clanezzo
(45.7500°N, 9.6000°E)
Time: 01:25:44
(UTC+00:00)

Cosmos 2366 rocket - Pass Details

Date: 12 May 2021
Orbit: 956 x 996 km, 82.9° (Epoch: 23 June)

Event Time Altitude Azimuth Distance (km) Brightness Sun altitude
Rises 22:11:23 0° 351° (N) 3,653 8.4 -24.1°
Reaches altitude 10° 22:13:53 10° 352° (N) 2,707 7.4 -24.3°
Maximum altitude 22:20:05 88° 80° (E) 975 3.9 -24.5°
Enters shadow 22:21:32 56° 170° (S) 1,140 3.9 -24.6°
